User: anonymous   Login
Location: Chmeli�t?
(49.8978°N, 15.0526°E)
Time: 01:36:05
(UTC+00:00)
Language:

Cosmos 2074 Rocket - Orbit

View from above orbital plane
View from above orbital plane
View from above satellite
View from above satellite

Ground track
Ground track

The orbit data is extracted from the following two-line orbital elements,

1 20578U 90036B   21127.46157543  .00000016  00000-0  77174-6 0  9997
2 20578  82.9472  25.4908 0012207 331.0730 202.0309 13.76389926559068
Epoch (UTC): 07 May 2021 11:04:40
Eccentricity: 0.0012207
inclination: 82.9472°
perigee height: 968 km
apogee height: 985 km
right ascension of ascending node: 25.4908°
argument of perigee: 331.0730°
revolutions per day: 13.76389926
mean anomaly at epoch: 202.0309°
orbit number at epoch: 55906

The dashed part of the orbit path shows where the satellite is in the earth's shadow,  

DLR